Location: Unspecified
(0.0000°N, 0.0000°E)
Time: 08:09:46
(UTC+00:00)

LES 2 - Pass Details

Date: 18 October 2025
Orbit: 2783 x 14792 km, 32.1° (Epoch: 30 October)

Event Time Altitude Azimuth Distance (km) Brightness Sun altitude
Rises 23:02:37 0° 284° (WNW) 7,430 ? -75.5°
Reaches altitude 10° 23:07:43 10° 276° (W) 5,918 ? -76.4°
Enters shadow 23:09:49 15° 271° (W) 5,339 ? -76.7°
Exits shadow 23:31:45 20° 149° (SSE) 5,668 ? -79.5°
Drops below altitude 10° 23:37:17 10° 139° (SE) 7,203 ? -79.8°
Sets 23:44:57 0° 130° (SE) 9,361 ? -80.0°
